N3CAN-10 Weather Reports


time (UTC)temp
F
wind
direction
speed
knots
gust
knots
rain 1hr
in
rain 24hr
in
rain mn
in
humidity
%
barometer
mb
20260507210501 60 0.0 0.0 0.00 0.00 0.00 29
20260507203501 60 0.0 0.0 0.00 0.00 0.00 31
20260507200501 60 0.0 0.0 0.00 0.00 0.00 31
20260507193501 62 0.0 0.0 0.00 0.00 0.00 30
20260507190502 63 0.0 0.0 0.00 0.00 0.00 31
20260507183502 63 0.0 0.0 0.00 0.00 0.00 32
20260507180502 61 0.0 0.0 0.00 0.00 0.00 36
20260507173502 61 0.0 0.0 0.00 0.00 0.00 36
20260507170501 60 0.0 0.0 0.00 0.00 0.00 40
20260507163501 59 0.0 0.0 0.00 0.00 0.00 50
20260507160501 58 0.0 0.0 0.00 0.00 0.00 53
20260507153501 58 0.0 0.0 0.00 0.00 0.00 56
20260507150501 57 0.0 0.0 0.00 0.00 0.00 57
20260507143501 56 0.0 0.0 0.00 0.00 0.00 59
20260507140502 54 0.0 0.0 0.00 0.00 0.00 60
20260507133502 54 0.0 0.0 0.00 0.00 0.00 61
20260507130501 51 0.0 0.0 0.00 0.00 0.00 64
20260507123501 49 0.0 0.0 0.00 0.00 0.00 65
20260507120501 49 0.0 0.0 0.00 0.00 0.00 71
20260507113501 48 0.0 0.0 0.00 0.00 0.00 80
20260507110501 46 0.0 0.0 0.00 0.00 0.00 83
20260507103501 46 0.0 0.0 0.00 0.00 0.00 84
20260507100501 47 0.0 0.0 0.00 0.00 0.00 84
20260507093502 47 0.0 0.0 0.00 0.00 0.00 85
20260507090502 47 0.0 0.0 0.00 0.00 0.00 85
20260507083501 47 0.0 0.0 0.00 0.00 0.00 87
20260507080501 48 0.0 0.0 0.00 0.00 0.00 88
20260507073501 48 0.0 0.0 0.00 0.00 0.00 88
20260507070501 49 0.0 0.0 0.00 0.00 0.00 90
20260507063501 49 0.0 0.0 0.00 0.00 0.00 90
20260507060501 50 0.0 0.0 0.00 0.00 0.00 90
20260507053502 51 0.0 0.0 0.00 0.00 0.00 91
20260507050502 51 0.0 0.0 0.00 0.00 0.00 91
20260507043502 52 0.0 0.0 0.00 0.00 0.00 92
20260507040501 53 0.0 0.0 0.00 0.00 0.00 92
20260507033501 54 0.0 0.0 0.00 0.00 0.00 92
20260507030501 56 0.0 0.0 0.00 0.00 0.00 95
20260507023501 58 0.0 0.0 0.00 0.00 0.00 95
20260507020501 59 0.0 0.0 0.00 0.00 0.00 96
20260507013501 60 0.0 0.0 0.00 0.00 0.00 95
20260507010501 60 0.0 0.0 0.00 0.00 0.00 95
20260507003502 60 0.0 0.0 0.00 0.00 0.00 95
20260507000502 60 0.0 0.0 0.00 0.00 0.00 94
20260506233502 61 0.0 0.0 0.00 0.00 0.00 93
20260506230501 61 0.0 0.0 0.00 0.00 0.00 93
20260506223501 61 0.0 0.0 0.00 0.00 0.00 93
20260506220501 62 0.0 0.0 0.00 0.00 0.00 93
20260506213501 62 0.0 0.0 0.00 0.00 0.00 92